[[{"header":{"parameterUnit":"m.s-1","parameterCategory":2,"la1":30.2991,"la2":30.254,"lo1":-89.0895,"lo2":-89.0444,"dy":0.0017,"dx":0.0017,"nx":28,"ny":28,"refTime":"2024-12-03T09:00:00:Z","depth":"0","parameterNumber":2,"parameterNumberName":"U-component_of_CURRENTS"},"data":[0,0,0,0,0,0,0,0,0,0,0,0,0,0,0,0,0,0,0,0,0,0,0,0,0,0,0,0,0,0,0,0,0,0,0,0,0,0,0,0,0,0,0,0,0,0,0,0,0,0,0,0,0,0,0,0,0,0,-0.2474,-0.2474,0,-0.2473,-0.2472,-0.2472,-0.2437,-0.2437,-0.2436,-0.2435,-0.2392,-0.2392,-0.2391,0,0,0,0,0,0,0,0,0,0,0,0,0,-0.2438,-0.2439,-0.2474,-0.2474,-0.2475,-0.2473,-0.2472,-0.2472,-0.2437,-0.2437,-0.2436,-0.2435,-0.2392,-0.2392,-0.2391,0,0,0,0,0,0,0,0,0,0,0,0,0,-0.2444,-0.2439,-0.2474,-0.2459,-0.2458,-0.2473,-0.2472,-0.2472,-0.2438,-0.2437,-0.2436,-0.2435,-0.2393,-0.2392,-0.2391,-0.2406,0,0,-0.2389,-0.2388,0,0,0,0,0,0,0,0,-0.2444,-0.2445,-0.2461,-0.246,-0.2459,-0.2457,-0.2444,-0.2449,-0.2438,-0.2443,-0.2435,-0.2434,-0.2412,-0.241,-0.2409,-0.2404,-0.2402,-0.2388,-0.2388,-0.2388,-0.2387,0,0,0,0,0,0,0,-0.2444,-0.2445,-0.2471,-0.2461,-0.246,-0.245,-0.2449,-0.2445,-0.243,-0.2442,-0.244,-0.2445,-0.2411,-0.2409,-0.2407,-0.2401,-0.2388,-0.2388,-0.2387,-0.2387,-0.2406,-0.2407,0,0,0,0,0,0,-0.2451,-0.2445,-0.2471,-0.2471,-0.2452,-0.2451,-0.2451,-0.2456,-0.2431,-0.2427,-0.2445,-0.2443,-0.2411,-0.2408,-0.2406,-0.2423,-0.2388,-0.2387,-0.2386,-0.2405,-0.2406,-0.2407,0,0,0,0,0,0,-0.245,-0.2453,-0.2471,-0.246,-0.2462,-0.2453,-0.2459,-0.2457,-0.2452,-0.2435,-0.2429,-0.2444,-0.241,-0.2407,-0.2407,-0.2421,-0.2387,-0.2386,-0.2404,-0.2406,-0.2407,-0.2458,0,0,0,0,0,0,-0.2449,-0.2453,-0.2454,-0.2461,-0.2463,-0.2487,-0.2461,-0.2457,-0.2458,-0.2455,-0.2432,-0.2427,-0.2409,-0.2409,-0.2407,-0.242,-0.2385,-0.2403,-0.2405,-0.2406,-0.2455,-0.2461,-0.2466,0,0,0,0,0,-0.2448,-0.246,-0.2454,-0.2457,-0.2466,-0.2489,-0.2489,-0.2477,-0.2459,-0.2467,-0.245,-0.2427,-0.2419,-0.2409,-0.2406,-0.2419,-0.2402,-0.2404,-0.2406,-0.2452,-0.246,-0.2466,0,0,0,0,0,0,-0.2444,-0.2458,-0.2451,-0.2466,-0.2479,-0.2484,-0.2488,-0.2481,-0.2474,-0.2465,-0.2441,-0.2436,-0.2442,-0.2427,-0.2417,-0.2431,-0.2406,-0.2408,-0.2443,-0.2449,-0.2455,-0.246,-0.2384,0,0,0,0,0,-0.2445,-0.2454,-0.247,-0.2479,-0.2488,-0.2487,-0.2491,-0.2488,-0.2487,-0.2482,-0.2468,-0.2454,-0.2452,-0.2447,-0.2442,-0.245,-0.2426,-0.2457,-0.2462,-0.2467,-0.247,-0.2454,-0.2458,-0.2415,-0.2415,-0.2415,0,0,-0.2445,-0.2454,-0.2457,-0.2479,-0.2482,-0.2506,-0.2486,-0.25,-0.2514,-0.2479,-0.2486,-0.2474,-0.2459,-0.2469,-0.247,-0.2456,-0.2466,-0.247,-0.2474,-0.2474,-0.2457,-0.2461,-0.2465,-0.2416,-0.2416,-0.2416,0,0,-0.2457,-0.246,-0.2474,-0.2492,-0.2509,-0.2515,-0.2523,-0.2533,-0.2531,-0.2544,-0.2522,-0.252,-0.2513,-0.2508,-0.2504,-0.2538,-0.2498,-0.2536,-0.2565,-0.255,-0.2553,-0.2555,-0.2523,-0.2523,-0.2536,-0.2536,-0.2536,0,-0.2453,-0.2473,-0.2482,-0.2507,-0.252,-0.2524,-0.2547,-0.2558,-0.2565,-0.2566,-0.2551,-0.2545,-0.2533,-0.2544,-0.2557,-0.255,-0.2528,-0.2539,-0.2556,-0.2558,-0.256,-0.2526,-0.2525,-0.2539,-0.2539,-0.2538,-0.2538,0,-0.2479,-0.2497,-0.251,-0.2539,-0.256,-0.2581,-0.2604,-0.2616,-0.2611,-0.2614,-0.262,-0.2606,-0.2597,-0.26,-0.2589,-0.2601,-0.2576,-0.2566,-0.2537,-0.2567,-0.253,-0.2528,-0.2543,-0.2542,-0.2541,-0.254,0,0,-0.2459,-0.2516,-0.2517,-0.2533,-0.2576,-0.2592,-0.263,-0.2655,-0.2664,-0.267,-0.2675,-0.2681,-0.2662,-0.2657,-0.2642,-0.2635,-0.2629,-0.261,-0.2608,-0.2575,-0.2581,-0.2507,-0.2497,-0.2619,-0.262,-0.262,-0.2548,0,-0.2469,-0.2514,-0.2544,-0.2582,-0.2605,-0.2632,-0.2664,-0.2688,-0.2697,-0.2707,-0.2699,-0.2698,-0.2688,-0.2677,-0.2674,-0.2642,-0.2626,-0.2648,-0.256,-0.2557,-0.2485,-0.2493,-0.2395,-0.2318,-0.2545,-0.2545,-0.2544,0,-0.2473,-0.2504,-0.2543,-0.2594,-0.2606,-0.2632,-0.2667,-0.2697,-0.2726,-0.2731,-0.2736,-0.2726,-0.2725,-0.2705,-0.2666,-0.2679,-0.2636,-0.2608,-0.2604,-0.2516,-0.2479,-0.2327,-0.2305,-0.2284,-0.254,-0.254,-0.2541,0,-0.2431,-0.2495,-0.252,-0.254,-0.2606,-0.2622,-0.2652,-0.2692,-0.2712,-0.2738,-0.2743,-0.2743,-0.2726,-0.2696,-0.2644,-0.2653,-0.2586,-0.2585,-0.2475,-0.2469,-0.2357,-0.2341,-0.23,-0.2548,-0.2549,-0.2549,-0.2549,0,-0.2416,-0.2431,-0.2499,-0.2511,-0.2535,-0.2594,-0.2617,-0.265,-0.2695,-0.2705,-0.2741,-0.2736,-0.2723,-0.2686,-0.2645,-0.2545,-0.2581,-0.2476,-0.2447,-0.2371,-0.2358,-0.2311,-0.2327,-0.2546,-0.2547,-0.2547,-0.2548,0,-0.2349,-0.2401,-0.2427,-0.2494,-0.2511,-0.2522,-0.2587,-0.2602,-0.2661,-0.2674,-0.2681,-0.2717,-0.2667,-0.2637,-0.2573,-0.2523,-0.2395,-0.2403,-0.2308,-0.2269,-0.2146,-0.2168,-0.2073,-0.2016,-0.227,-0.2268,-0.2266,0,-0.2313,-0.2321,-0.2386,-0.2393,-0.2417,-0.2452,-0.2471,-0.2557,-0.2581,-0.2648,-0.2642,-0.2629,-0.2577,-0.2471,-0.2393,-0.229,-0.2288,-0.2145,-0.2146,-0.212,-0.2124,-0.2134,-0.2095,-0.2015,-0.2012,-0.2009,-0.2006,0,-0.223,-0.2253,-0.227,-0.2293,-0.2313,-0.2341,-0.2382,-0.2401,-0.2492,-0.2507,-0.2505,-0.2473,-0.2402,-0.2258,-0.2153,-0.2089,-0.2085,-0.2076,-0.2075,-0.1941,-0.1923,-0.186,-0.2083,-0.1979,-0.1981,-0.1983,-0.1985,-0.1986,-0.2143,-0.2133,-0.2157,-0.2161,-0.2188,-0.2193,-0.217,-0.2229,-0.2235,-0.2227,-0.2303,-0.2226,-0.2152,-0.1988,-0.1928,-0.1808,-0.1868,-0.1751,-0.1784,-0.18,-0.1735,-0.1891,-0.1743,-0.1744,-0.1746,-0.1747,-0.1748,0,-0.2018,-0.2017,-0.2022,-0.2023,-0.1993,-0.2055,-0.2072,-0.2024,-0.1975,-0.2013,-0.1979,-0.1916,-0.1773,-0.1737,-0.1624,-0.1542,-0.1518,-0.1515,-0.1521,-0.1498,-0.1643,-0.1622,-0.141,-0.141,-0.141,-0.141,-0.141,-0.141,-0.1952,-0.1903,-0.1906,-0.1813,-0.1811,-0.1725,-0.1698,-0.165,-0.1647,-0.1573,-0.1571,-0.1614,-0.159,-0.1613,-0.149,-0.1419,-0.1391,-0.1336,-0.1374,-0.1505,-0.1531,-0.1555,-0.1539,-0.1313,-0.1313,-0.1168,-0.1167,-0.1166]},{"header":{"parameterUnit":"m.s-1","parameterCategory":2,"la1":30.2991,"la2":30.254,"lo1":-89.0895,"lo2":-89.0444,"dy":0.0017,"dx":0.0017,"nx":28,"ny":28,"refTime":"2024-12-03T09:00:00:Z","depth":"0","parameterNumber":3,"parameterNumberName":"V-component_of_CURRENTS"},"data":[0,0,0,0,0,0,0,0,0,0,0,0,0,0,0,0,0,0,0,0,0,0,0,0,0,0,0,0,0,0,0,0,0,0,0,0,0,0,0,0,0,0,0,0,0,0,0,0,0,0,0,0,0,0,0,0,0,0,-0.0443,-0.0443,0,-0.0377,-0.0376,-0.0376,-0.0332,-0.0332,-0.0332,-0.0331,-0.024,-0.0238,-0.0236,0,0,0,0,0,0,0,0,0,0,0,0,0,-0.0484,-0.0483,-0.0443,-0.0443,-0.0442,-0.0377,-0.0376,-0.0375,-0.0332,-0.0332,-0.0332,-0.0331,-0.0241,-0.0238,-0.0235,0,0,0,0,0,0,0,0,0,0,0,0,0,-0.0446,-0.0483,-0.0443,-0.0413,-0.041,-0.0378,-0.0376,-0.0375,-0.0332,-0.0332,-0.0332,-0.0331,-0.0242,-0.0238,-0.0235,-0.0221,0,0,-0.0225,-0.0223,0,0,0,0,0,0,0,0,-0.0448,-0.0445,-0.0418,-0.0415,-0.0411,-0.0363,-0.0357,-0.0323,-0.0332,-0.0361,-0.0331,-0.0331,-0.028,-0.0273,-0.0261,-0.0217,-0.0213,-0.0225,-0.0223,-0.0221,-0.022,0,0,0,0,0,0,0,-0.0451,-0.0447,-0.0416,-0.0418,-0.0413,-0.0386,-0.0381,-0.035,-0.0322,-0.0358,-0.0355,-0.0349,-0.0277,-0.0264,-0.0258,-0.0211,-0.0225,-0.0222,-0.022,-0.0218,-0.0134,-0.0134,0,0,0,0,0,0,-0.0464,-0.045,-0.0418,-0.0414,-0.043,-0.0386,-0.038,-0.0378,-0.0323,-0.0314,-0.035,-0.0347,-0.027,-0.0262,-0.0255,-0.0232,-0.0221,-0.0218,-0.0216,-0.0134,-0.0134,-0.0134,0,0,0,0,0,0,-0.0465,-0.0462,-0.0421,-0.0431,-0.0424,-0.0386,-0.0384,-0.0377,-0.0365,-0.0316,-0.0307,-0.0345,-0.0269,-0.0259,-0.0228,-0.0228,-0.0216,-0.0213,-0.0134,-0.0134,-0.0134,-0.0188,0,0,0,0,0,0,-0.0466,-0.0463,-0.0468,-0.0432,-0.0424,-0.0409,-0.0384,-0.0376,-0.0362,-0.0358,-0.0309,-0.03,-0.0268,-0.0233,-0.0225,-0.0223,-0.0211,-0.0135,-0.0134,-0.0134,-0.0187,-0.019,-0.0192,0,0,0,0,0,-0.0468,-0.0479,-0.0468,-0.0464,-0.0431,-0.0409,-0.0402,-0.0373,-0.0362,-0.036,-0.0324,-0.0302,-0.0224,-0.023,-0.022,-0.0218,-0.0135,-0.0134,-0.0134,-0.0185,-0.0189,-0.0192,0,0,0,0,0,0,-0.0499,-0.0475,-0.0462,-0.0465,-0.0441,-0.0402,-0.0399,-0.0379,-0.0349,-0.0347,-0.03,-0.0288,-0.0261,-0.0231,-0.0239,-0.0191,-0.0175,-0.0173,-0.0218,-0.0221,-0.0224,-0.0237,-0.0208,0,0,0,0,0,-0.0509,-0.0511,-0.0479,-0.0481,-0.0473,-0.0437,-0.0425,-0.0406,-0.0374,-0.0361,-0.0325,-0.0285,-0.025,-0.023,-0.0196,-0.0172,-0.0137,-0.0162,-0.0165,-0.0168,-0.0171,-0.0121,-0.012,-0.0132,-0.0132,-0.0132,0,0,-0.052,-0.0508,-0.0508,-0.0488,-0.0468,-0.0463,-0.0429,-0.0417,-0.0409,-0.0356,-0.0335,-0.0296,-0.0246,-0.0218,-0.0203,-0.0194,-0.0145,-0.0167,-0.017,-0.0172,-0.012,-0.0119,-0.0118,-0.0132,-0.0132,-0.0132,0,0,-0.055,-0.0535,-0.0549,-0.0534,-0.0511,-0.0486,-0.0486,-0.045,-0.0429,-0.0404,-0.0363,-0.0324,-0.0274,-0.0235,-0.021,-0.0207,-0.0164,-0.0196,-0.0219,-0.0171,-0.0169,-0.0168,-0.0122,-0.0116,-0.0196,-0.0196,-0.0196,0,-0.0567,-0.0579,-0.0548,-0.0557,-0.0549,-0.0502,-0.0512,-0.0483,-0.044,-0.0421,-0.0407,-0.0321,-0.0282,-0.0237,-0.0236,-0.0214,-0.0181,-0.0214,-0.0175,-0.0173,-0.0171,-0.0124,-0.0116,-0.0198,-0.0198,-0.0198,-0.0198,0,-0.0607,-0.0614,-0.0621,-0.0615,-0.0601,-0.0601,-0.056,-0.054,-0.0509,-0.0474,-0.0425,-0.0364,-0.0313,-0.0292,-0.0264,-0.0224,-0.0205,-0.0188,-0.0171,-0.0173,-0.0123,-0.0114,-0.0202,-0.0201,-0.02,-0.02,0,0,-0.0648,-0.0651,-0.0653,-0.0661,-0.0633,-0.0626,-0.0609,-0.0576,-0.0559,-0.0507,-0.0477,-0.0411,-0.0371,-0.0339,-0.029,-0.0245,-0.0199,-0.0216,-0.0212,-0.0178,-0.0091,-0.0048,-0.0033,-0.0177,-0.0176,-0.0175,-0.0064,0,-0.069,-0.0728,-0.0709,-0.073,-0.0744,-0.0694,-0.0681,-0.0641,-0.0592,-0.0549,-0.0474,-0.0429,-0.039,-0.0364,-0.0313,-0.0224,-0.0179,-0.0231,-0.0087,-0.0083,-0.005,-0.0023,0.0005,0.0109,-0.0055,-0.0054,-0.0052,0,-0.0735,-0.0755,-0.0794,-0.0791,-0.079,-0.079,-0.0752,-0.0732,-0.0654,-0.0615,-0.055,-0.0487,-0.0408,-0.0379,-0.0234,-0.0269,-0.0191,-0.0122,-0.0116,-0.0051,-0.0023,0.0086,0.0132,0.0241,-0.0039,-0.004,-0.0041,0,-0.0787,-0.0808,-0.0844,-0.0845,-0.0835,-0.0834,-0.0818,-0.0756,-0.0732,-0.0653,-0.0619,-0.0519,-0.0458,-0.0353,-0.0208,-0.0223,-0.0042,-0.0044,0.0071,0.0075,0.014,0.0148,0.0302,0.0052,0.0052,0.0051,0.0051,0,-0.0841,-0.0865,-0.0874,-0.0894,-0.0923,-0.0889,-0.089,-0.0853,-0.0792,-0.0756,-0.066,-0.0598,-0.0448,-0.0323,-0.0211,-0.003,-0.004,0.0076,0.0112,0.0123,0.0127,0.0258,0.0291,0.0055,0.0055,0.0054,0.0053,0,-0.0893,-0.0901,-0.0941,-0.0949,-0.0953,-0.0971,-0.0951,-0.0943,-0.0875,-0.0821,-0.0799,-0.0648,-0.0476,-0.0313,-0.0118,-0.0022,0.0211,0.0197,0.02,0.0234,0.042,0.0448,0.0633,0.0697,0.033,0.0331,0.0333,0,-0.0924,-0.0954,-0.099,-0.1018,-0.1026,-0.1043,-0.105,-0.0997,-0.0975,-0.0841,-0.0816,-0.0637,-0.049,-0.0181,0.0021,0.0238,0.0313,0.0378,0.0352,0.0449,0.0506,0.0521,0.0561,0.0419,0.0422,0.0423,0.0425,0,-0.0976,-0.099,-0.1023,-0.1087,-0.1113,-0.1134,-0.1133,-0.1129,-0.1043,-0.0962,-0.0817,-0.0685,-0.0373,-0.0097,0.0185,0.0311,0.0458,0.042,0.0529,0.06,0.062,0.0692,0.0322,0.044,0.0439,0.0437,0.0437,0.0436,-0.1003,-0.1045,-0.1092,-0.1146,-0.1181,-0.1205,-0.1208,-0.1171,-0.111,-0.0958,-0.0832,-0.059,-0.0209,0.0205,0.0347,0.0645,0.0604,0.0722,0.0751,0.0761,0.0816,0.0478,0.0627,0.0626,0.0626,0.0626,0.0625,0,-0.1032,-0.1081,-0.1145,-0.1204,-0.1245,-0.1246,-0.1242,-0.1202,-0.1109,-0.0939,-0.0763,-0.0312,0.006,0.0395,0.0815,0.0967,0.0985,0.1041,0.1069,0.1097,0.0817,0.0814,0.1001,0.1001,0.1001,0.1,0.1,0.1,-0.1048,-0.1117,-0.1156,-0.1235,-0.1272,-0.1288,-0.1276,-0.1181,-0.1051,-0.0746,-0.047,-0.0254,0.0232,0.0877,0.1248,0.1277,0.1385,0.1376,0.1437,0.1238,0.121,0.1184,0.1191,0.1453,0.1454,0.1709,0.1711,0.1713]}],[{"header":{"parameterUnit":"m.s-1","parameterCategory":2,"la1":30.2991,"la2":30.254,"lo1":-89.0895,"lo2":-89.0444,"dy":0.0017,"dx":0.0017,"nx":28,"ny":28,"refTime":"2024-12-03T09:00:00:Z","depth":"2","parameterNumber":2,"parameterNumberName":"U-component_of_CURRENTS"},"data":[0,0,0,0,0,0,0,0,0,0,0,0,0,0,0,0,0,0,0,0,0,0,0,0,0,0,0,0,0,0,0,0,0,0,0,0,0,0,0,0,0,0,0,0,0,0,0,0,0,0,0,0,0,0,0,0,0,0,-0.2196,-0.2196,0,-0.2202,-0.2202,-0.2202,-0.2178,-0.2177,-0.2177,-0.2176,-0.2147,-0.2146,-0.2146,0,0,0,0,0,0,0,0,0,0,0,0,0,-0.2157,-0.2157,-0.2196,-0.2196,-0.2196,-0.2202,-0.2202,-0.2202,-0.2178,-0.2177,-0.2177,-0.2176,-0.2147,-0.2146,-0.2146,0,0,0,0,0,0,0,0,0,0,0,0,0,-0.2167,-0.2157,-0.2196,-0.2186,-0.2186,-0.2202,-0.2202,-0.2202,-0.2178,-0.2177,-0.2176,-0.2176,-0.2147,-0.2146,-0.2146,-0.2159,0,0,-0.2145,-0.2144,0,0,0,0,0,0,0,0,-0.2167,-0.2168,-0.2188,-0.2187,-0.2187,-0.219,-0.2178,-0.2186,-0.2178,-0.2179,-0.2176,-0.2175,-0.216,-0.2158,-0.2159,-0.2157,-0.2156,-0.2145,-0.2144,-0.2144,-0.2144,0,0,0,0,0,0,0,-0.2166,-0.2168,-0.2196,-0.2188,-0.2187,-0.218,-0.2181,-0.2179,-0.2171,-0.2179,-0.2177,-0.2182,-0.2159,-0.2159,-0.2158,-0.2156,-0.2145,-0.2144,-0.2144,-0.2144,-0.2171,-0.2172,0,0,0,0,0,0,-0.2171,-0.2168,-0.2196,-0.2196,-0.2177,-0.2182,-0.2182,-0.2188,-0.2172,-0.217,-0.2183,-0.2181,-0.216,-0.2158,-0.2157,-0.218,-0.2144,-0.2144,-0.2143,-0.217,-0.2171,-0.2172,0,0,0,0,0,0,-0.217,-0.2174,-0.2196,-0.2184,-0.2186,-0.2184,-0.219,-0.2189,-0.2189,-0.2176,-0.2172,-0.2185,-0.216,-0.2157,-0.2163,-0.2178,-0.2143,-0.2143,-0.2169,-0.2171,-0.2172,-0.2221,0,0,0,0,0,0,-0.2169,-0.2173,-0.2176,-0.2184,-0.2187,-0.2213,-0.2191,-0.2189,-0.2194,-0.2192,-0.2177,-0.2173,-0.2159,-0.2164,-0.2162,-0.2177,-0.2143,-0.2168,-0.217,-0.2171,-0.2218,-0.2224,-0.2229,0,0,0,0,0,-0.2168,-0.218,-0.2176,-0.2179,-0.2192,-0.2214,-0.2215,-0.2209,-0.2195,-0.2204,-0.2193,-0.2174,-0.2175,-0.2164,-0.2163,-0.2177,-0.2167,-0.2169,-0.2171,-0.2215,-0.2223,-0.2229,0,0,0,0,0,0,-0.2164,-0.2179,-0.2175,-0.219,-0.2204,-0.2211,-0.2217,-0.2214,-0.2213,-0.2207,-0.2187,-0.2184,-0.2195,-0.2182,-0.2172,-0.2191,-0.2167,-0.2169,-0.2201,-0.2208,-0.2213,-0.2216,-0.2142,0,0,0,0,0,-0.2166,-0.2175,-0.2192,-0.2202,-0.2212,-0.2214,-0.222,-0.222,-0.2223,-0.2221,-0.2212,-0.2204,-0.2205,-0.2202,-0.2201,-0.2212,-0.2189,-0.2221,-0.2226,-0.2231,-0.2233,-0.2219,-0.2223,-0.218,-0.218,-0.218,0,0,-0.2166,-0.2176,-0.218,-0.2202,-0.2208,-0.2231,-0.2215,-0.2232,-0.2248,-0.2219,-0.2232,-0.2224,-0.2213,-0.2226,-0.223,-0.2216,-0.2231,-0.2234,-0.2238,-0.2237,-0.2222,-0.2226,-0.2229,-0.2181,-0.2181,-0.2181,0,0,-0.2178,-0.2183,-0.2197,-0.2215,-0.2234,-0.2242,-0.225,-0.2265,-0.2267,-0.2283,-0.2266,-0.2269,-0.2269,-0.2265,-0.2263,-0.2298,-0.2262,-0.2298,-0.2325,-0.2312,-0.2315,-0.2318,-0.2289,-0.2289,-0.2298,-0.2298,-0.2298,0,-0.2177,-0.2195,-0.2205,-0.2229,-0.2243,-0.225,-0.2274,-0.2286,-0.2299,-0.2303,-0.2293,-0.2296,-0.2288,-0.23,-0.2315,-0.231,-0.229,-0.23,-0.2318,-0.232,-0.2322,-0.2292,-0.2291,-0.2301,-0.2301,-0.23,-0.23,0,-0.22,-0.2218,-0.2231,-0.226,-0.2281,-0.2302,-0.2327,-0.2343,-0.2344,-0.2349,-0.2362,-0.2354,-0.2351,-0.2354,-0.2346,-0.236,-0.2337,-0.2328,-0.23,-0.2329,-0.2296,-0.2294,-0.2305,-0.2304,-0.2303,-0.2302,0,0,-0.2183,-0.2236,-0.2238,-0.2254,-0.2297,-0.2314,-0.2351,-0.2379,-0.2391,-0.2403,-0.2413,-0.2424,-0.2411,-0.2408,-0.2397,-0.2391,-0.2388,-0.2369,-0.2367,-0.2337,-0.2347,-0.2276,-0.2266,-0.2381,-0.2381,-0.2381,-0.2316,0,-0.2192,-0.2233,-0.2262,-0.23,-0.2322,-0.2351,-0.2383,-0.241,-0.2424,-0.2439,-0.2436,-0.2442,-0.2434,-0.2429,-0.2427,-0.2399,-0.2386,-0.2405,-0.2326,-0.2323,-0.2254,-0.2263,-0.2105,-0.2029,-0.2314,-0.2313,-0.2313,0,-0.2196,-0.2224,-0.2262,-0.2311,-0.2323,-0.235,-0.2389,-0.242,-0.2453,-0.2463,-0.2474,-0.2469,-0.2472,-0.2456,-0.2423,-0.2435,-0.2397,-0.2371,-0.2368,-0.2282,-0.2248,-0.2047,-0.2014,-0.2309,-0.2309,-0.231,-0.231,0,-0.2157,-0.2218,-0.2242,-0.2262,-0.2325,-0.2344,-0.2375,-0.2418,-0.2439,-0.2473,-0.2481,-0.2487,-0.2476,-0.245,-0.2405,-0.2413,-0.2354,-0.2352,-0.2249,-0.2243,-0.2082,-0.2062,-0.2319,-0.232,-0.232,-0.232,-0.232,0,-0.2143,-0.2159,-0.2225,-0.2237,-0.2262,-0.232,-0.2347,-0.2382,-0.2429,-0.2441,-0.2482,-0.2479,-0.2474,-0.2443,-0.2406,-0.2315,-0.2349,-0.2249,-0.2222,-0.2094,-0.2077,-0.2302,-0.2301,-0.2317,-0.2318,-0.2318,-0.2319,0,-0.2082,-0.2131,-0.2157,-0.2223,-0.2241,-0.2255,-0.2321,-0.2336,-0.2399,-0.2415,-0.2425,-0.2463,-0.2421,-0.2398,-0.2341,-0.2294,-0.2228,-0.2184,-0.2029,-0.1986,-0.2125,-0.2128,-0.2064,-0.2061,-0.2058,-0.2056,-0.2054,0,-0.2049,-0.2058,-0.2122,-0.213,-0.2155,-0.2193,-0.2212,-0.2297,-0.2317,-0.2389,-0.2382,-0.2378,-0.2329,-0.2235,-0.2162,-0.2069,-0.214,-0.1873,-0.1863,-0.2119,-0.21,-0.2106,-0.2112,-0.1664,-0.1659,-0.1655,-0.1652,0,-0.1973,-0.1997,-0.2015,-0.2038,-0.2059,-0.2084,-0.2125,-0.2139,-0.2228,-0.2244,-0.2242,-0.2214,-0.2153,-0.1985,-0.1893,-0.1826,-0.1881,-0.1789,-0.2081,-0.1764,-0.174,-0.1722,-0.1741,-0.1617,-0.1621,-0.1623,-0.1625,-0.1626,-0.1896,-0.1887,-0.191,-0.1915,-0.1942,-0.1942,-0.1916,-0.1968,-0.197,-0.1958,-0.2034,-0.1938,-0.1915,-0.1685,-0.1586,-0.152,-0.1652,-0.1571,-0.1584,-0.1601,-0.1577,-0.155,-0.1386,-0.1388,-0.139,-0.1392,-0.1393,0,-0.1782,-0.1781,-0.1784,-0.1782,-0.1753,-0.1814,-0.1822,-0.1766,-0.1711,-0.1734,-0.1699,-0.1506,-0.1393,-0.138,-0.1224,-0.1188,-0.1187,-0.1133,-0.1132,-0.1168,-0.1199,-0.1156,-0.0853,-0.0851,-0.085,-0.0848,0,0,-0.1722,-0.1674,-0.1672,-0.158,-0.1578,-0.1491,-0.146,-0.1402,-0.1381,-0.1282,-0.1237,-0.1322,-0.1343,-0.1103,-0.1041,-0.092,-0.1035,-0.0872,-0.1307,-0.1341,-0.1371,-0.1451,-0.1424,0,0,0,0,0]},{"header":{"parameterUnit":"m.s-1","parameterCategory":2,"la1":30.2991,"la2":30.254,"lo1":-89.0895,"lo2":-89.0444,"dy":0.0017,"dx":0.0017,"nx":28,"ny":28,"refTime":"2024-12-03T09:00:00:Z","depth":"2","parameterNumber":3,"parameterNumberName":"V-component_of_CURRENTS"},"data":[0,0,0,0,0,0,0,0,0,0,0,0,0,0,0,0,0,0,0,0,0,0,0,0,0,0,0,0,0,0,0,0,0,0,0,0,0,0,0,0,0,0,0,0,0,0,0,0,0,0,0,0,0,0,0,0,0,0,-0.0354,-0.0353,0,-0.0294,-0.0293,-0.0292,-0.0253,-0.0253,-0.0252,-0.0252,-0.0168,-0.0166,-0.0164,0,0,0,0,0,0,0,0,0,0,0,0,0,-0.0389,-0.0389,-0.0354,-0.0353,-0.0352,-0.0294,-0.0293,-0.0292,-0.0253,-0.0253,-0.0252,-0.0252,-0.0168,-0.0166,-0.0163,0,0,0,0,0,0,0,0,0,0,0,0,0,-0.0356,-0.0389,-0.0354,-0.0326,-0.0323,-0.0294,-0.0293,-0.0292,-0.0253,-0.0253,-0.0252,-0.0252,-0.0169,-0.0166,-0.0163,-0.015,0,0,-0.0154,-0.0152,0,0,0,0,0,0,0,0,-0.0358,-0.0354,-0.0331,-0.0328,-0.0325,-0.0281,-0.0275,-0.0243,-0.0253,-0.0279,-0.0252,-0.0252,-0.0204,-0.0198,-0.0187,-0.0146,-0.0142,-0.0153,-0.0151,-0.015,-0.0149,0,0,0,0,0,0,0,-0.036,-0.0356,-0.0329,-0.033,-0.0326,-0.0302,-0.0297,-0.0268,-0.0243,-0.0277,-0.0274,-0.0268,-0.0202,-0.019,-0.0184,-0.0141,-0.0153,-0.0151,-0.0149,-0.0148,-0.0074,-0.0073,0,0,0,0,0,0,-0.0372,-0.0359,-0.0331,-0.0328,-0.0342,-0.0301,-0.0296,-0.0295,-0.0244,-0.0236,-0.0269,-0.0267,-0.0195,-0.0188,-0.0181,-0.0161,-0.015,-0.0147,-0.0145,-0.0074,-0.0074,-0.0073,0,0,0,0,0,0,-0.0373,-0.037,-0.0334,-0.0342,-0.0336,-0.0302,-0.03,-0.0294,-0.0283,-0.0238,-0.023,-0.0265,-0.0195,-0.0186,-0.0157,-0.0158,-0.0146,-0.0143,-0.0074,-0.0074,-0.0073,-0.0122,0,0,0,0,0,0,-0.0374,-0.0371,-0.0376,-0.0343,-0.0336,-0.0323,-0.03,-0.0293,-0.0281,-0.0278,-0.0232,-0.0224,-0.0194,-0.0162,-0.0154,-0.0153,-0.0141,-0.0074,-0.0074,-0.0074,-0.012,-0.0123,-0.0126,0,0,0,0,0,-0.0376,-0.0386,-0.0376,-0.0373,-0.0343,-0.0323,-0.0317,-0.0291,-0.0281,-0.028,-0.0247,-0.0225,-0.0155,-0.016,-0.0151,-0.0148,-0.0074,-0.0074,-0.0074,-0.0119,-0.0123,-0.0126,0,0,0,0,0,0,-0.0403,-0.0382,-0.0371,-0.0374,-0.0353,-0.0317,-0.0315,-0.0296,-0.027,-0.0268,-0.0224,-0.0214,-0.0189,-0.0162,-0.0168,-0.0126,-0.0111,-0.0109,-0.0149,-0.0152,-0.0154,-0.0166,-0.0138,0,0,0,0,0,-0.0412,-0.0415,-0.0387,-0.0389,-0.0382,-0.0349,-0.0339,-0.0322,-0.0293,-0.0282,-0.0248,-0.0212,-0.0181,-0.0162,-0.0132,-0.0109,-0.0076,-0.0101,-0.0104,-0.0106,-0.0109,-0.006,-0.0059,-0.0073,-0.0073,-0.0073,0,0,-0.0423,-0.0412,-0.0413,-0.0395,-0.0377,-0.0373,-0.0342,-0.0332,-0.0325,-0.0277,-0.0258,-0.0223,-0.0178,-0.0152,-0.0138,-0.0129,-0.0085,-0.0106,-0.0109,-0.0109,-0.006,-0.0058,-0.0057,-0.0072,-0.0073,-0.0073,0,0,-0.045,-0.0437,-0.045,-0.0437,-0.0417,-0.0395,-0.0395,-0.0363,-0.0344,-0.0323,-0.0285,-0.025,-0.0206,-0.0168,-0.0145,-0.0144,-0.0104,-0.0136,-0.0155,-0.0108,-0.0107,-0.0105,-0.0063,-0.0057,-0.0134,-0.0134,-0.0134,0,-0.0465,-0.0477,-0.045,-0.0457,-0.0451,-0.0409,-0.0418,-0.0393,-0.0354,-0.0337,-0.0325,-0.0248,-0.0212,-0.017,-0.017,-0.015,-0.012,-0.0149,-0.0113,-0.011,-0.0108,-0.0065,-0.0058,-0.0137,-0.0136,-0.0136,-0.0136,0,-0.0501,-0.0508,-0.0514,-0.051,-0.0497,-0.0499,-0.0462,-0.0444,-0.0417,-0.0385,-0.0341,-0.0286,-0.024,-0.0221,-0.0195,-0.0158,-0.0141,-0.0125,-0.0107,-0.0109,-0.0064,-0.0056,-0.014,-0.0139,-0.0138,-0.0138,0,0,-0.0539,-0.0541,-0.0544,-0.0552,-0.0528,-0.0522,-0.0506,-0.0476,-0.0461,-0.0414,-0.0387,-0.0326,-0.029,-0.0261,-0.0217,-0.0174,-0.013,-0.0148,-0.0144,-0.0112,-0.0029,0.0003,0.0016,-0.0109,-0.0108,-0.0107,-0.0005,0,-0.0576,-0.0612,-0.0594,-0.0615,-0.0628,-0.0584,-0.0572,-0.0535,-0.0492,-0.0453,-0.0383,-0.0344,-0.0306,-0.0284,-0.0235,-0.0155,-0.0111,-0.0159,-0.0026,-0.0022,0.0002,0.0025,0.0008,0.0099,0.0003,0.0005,0.0006,0,-0.0617,-0.0637,-0.0673,-0.0672,-0.0672,-0.0673,-0.0641,-0.0622,-0.0551,-0.0516,-0.0455,-0.0397,-0.0322,-0.0295,-0.0159,-0.0193,-0.012,-0.0057,-0.0051,0.0001,0.0025,0.0088,0.0118,0.002,0.0019,0.0018,0.0017,0,-0.0667,-0.0687,-0.0721,-0.0722,-0.0714,-0.0715,-0.0702,-0.0645,-0.0626,-0.0553,-0.0525,-0.0428,-0.0374,-0.0271,-0.0138,-0.015,0.0015,0.0017,0.0117,0.012,0.0143,0.0146,0.0109,0.0109,0.0108,0.0108,0.0108,0,-0.0717,-0.074,-0.075,-0.077,-0.08,-0.0768,-0.0774,-0.0741,-0.0686,-0.0658,-0.0564,-0.0511,-0.0366,-0.025,-0.0142,0.0022,0.0017,0.0121,0.0153,0.0126,0.0127,0.0086,0.0082,0.0112,0.0111,0.011,0.011,0,-0.0767,-0.0774,-0.0813,-0.0824,-0.0829,-0.0849,-0.0836,-0.0832,-0.077,-0.0728,-0.0708,-0.0567,-0.041,-0.0253,-0.007,0.0023,0.0169,0.0225,0.0184,0.0209,0.0239,0.0232,0.0341,0.0343,0.0345,0.0346,0.0347,0,-0.0797,-0.0826,-0.0864,-0.0892,-0.0902,-0.0923,-0.0933,-0.0886,-0.087,-0.0755,-0.0734,-0.0573,-0.0441,-0.0154,0.0037,0.0244,0.0235,0.0336,0.0311,0.0246,0.0266,0.0255,0.0245,0.0324,0.0325,0.0325,0.0326,0,-0.085,-0.0864,-0.0897,-0.0963,-0.0992,-0.1016,-0.102,-0.1021,-0.0946,-0.0878,-0.0754,-0.0636,-0.0352,-0.0112,0.0153,0.0267,0.03,0.0358,0.0321,0.0263,0.0237,0.0254,0.0243,0.0333,0.0332,0.0332,0.0331,0.0331,-0.088,-0.0921,-0.0968,-0.1025,-0.1063,-0.1092,-0.1099,-0.1069,-0.1021,-0.0888,-0.078,-0.0564,-0.0344,0.0051,0.023,0.0395,0.0387,0.0422,0.0416,0.0411,0.0386,0.0364,0.0479,0.0479,0.048,0.048,0.048,0,-0.0914,-0.0961,-0.1025,-0.1086,-0.1131,-0.1135,-0.1138,-0.1102,-0.1026,-0.0876,-0.0722,-0.045,-0.0178,0.0051,0.0321,0.047,0.0447,0.0489,0.0426,0.0419,0.0413,0.0385,0.048,0.0481,0.0481,0.0481,0,0,-0.0932,-0.1001,-0.1038,-0.1121,-0.1162,-0.1184,-0.1178,-0.1091,-0.0973,-0.0797,-0.0626,-0.0423,-0.015,0.0035,0.0226,0.0365,0.035,0.0376,0.0362,0.0259,0.0251,0.0365,0.0314,0,0,0,0,0]}],[{"header":{"parameterUnit":"m.s-1","parameterCategory":2,"la1":30.2991,"la2":30.254,"lo1":-89.0895,"lo2":-89.0444,"dy":0.0017,"dx":0.0017,"nx":28,"ny":28,"refTime":"2024-12-03T09:00:00:Z","depth":"4","parameterNumber":2,"parameterNumberName":"U-component_of_CURRENTS"},"data":[0,0,0,0,0,0,0,0,0,0,0,0,0,0,0,0,0,0,0,0,0,0,0,0,0,0,0,0,0,0,0,0,0,0,0,0,0,0,0,0,0,0,0,0,0,0,0,0,0,0,0,0,0,0,0,0,0,0,-0.1573,-0.1574,0,-0.1624,-0.1625,-0.1625,-0.1658,-0.1658,-0.1658,-0.1659,-0.1703,-0.1704,-0.1705,0,0,0,0,0,0,0,0,0,0,0,0,0,-0.1501,-0.1502,-0.1573,-0.1574,-0.1575,-0.1624,-0.1625,-0.1625,-0.1658,-0.1658,-0.1658,-0.1659,-0.1703,-0.1704,-0.1705,0,0,0,0,0,0,0,0,0,0,0,0,0,-0.1539,-0.1502,-0.1573,-0.1598,-0.1601,-0.1624,-0.1625,-0.1626,-0.1658,-0.1658,-0.1659,-0.1659,-0.1703,-0.1704,-0.1705,-0.1704,0,0,-0.1709,-0.171,0,0,0,0,0,0,0,0,-0.1536,-0.1541,-0.1593,-0.1596,-0.1599,-0.1636,-0.1616,-0.1652,-0.1658,-0.1635,-0.1659,-0.1659,-0.1681,-0.1684,-0.1691,-0.1706,-0.1708,-0.1709,-0.171,-0.1711,-0.1711,0,0,0,0,0,0,0,-0.1534,-0.1539,-0.1592,-0.1594,-0.1598,-0.1605,-0.1611,-0.1623,-0.1653,-0.1637,-0.1639,-0.1647,-0.1682,-0.1689,-0.1692,-0.1709,-0.1709,-0.1711,-0.1711,-0.1712,-0.1792,-0.1793,0,0,0,0,0,0,-0.153,-0.1537,-0.159,-0.1594,-0.157,-0.1606,-0.1613,-0.1623,-0.1653,-0.1659,-0.1647,-0.1648,-0.1687,-0.169,-0.1694,-0.1757,-0.1711,-0.1712,-0.1713,-0.1791,-0.1792,-0.1794,0,0,0,0,0,0,-0.1528,-0.1534,-0.1588,-0.1567,-0.1575,-0.1607,-0.1618,-0.1624,-0.1656,-0.1661,-0.1667,-0.1676,-0.1687,-0.1692,-0.1731,-0.1757,-0.1713,-0.1714,-0.1789,-0.1791,-0.1793,-0.1844,0,0,0,0,0,0,-0.1526,-0.1533,-0.1551,-0.1567,-0.1576,-0.1622,-0.1618,-0.1624,-0.1659,-0.1663,-0.1688,-0.1691,-0.1688,-0.1729,-0.1732,-0.1758,-0.1715,-0.1788,-0.179,-0.1792,-0.1841,-0.1848,-0.1853,0,0,0,0,0,-0.1523,-0.1543,-0.1551,-0.1559,-0.1595,-0.1623,-0.1629,-0.1651,-0.166,-0.1681,-0.1701,-0.1692,-0.1747,-0.1731,-0.1735,-0.1761,-0.1786,-0.1789,-0.1792,-0.1838,-0.1846,-0.1853,0,0,0,0,0,0,-0.1523,-0.1549,-0.1558,-0.1586,-0.1612,-0.1629,-0.1654,-0.1667,-0.1698,-0.1709,-0.171,-0.1715,-0.1758,-0.1754,-0.1737,-0.1792,-0.1764,-0.1768,-0.1798,-0.1806,-0.1812,-0.1807,-0.1716,0,0,0,0,0,-0.153,-0.1552,-0.1576,-0.1601,-0.1616,-0.1639,-0.1658,-0.1675,-0.1698,-0.1714,-0.1733,-0.1752,-0.1769,-0.1784,-0.1798,-0.183,-0.1808,-0.1849,-0.1856,-0.1861,-0.186,-0.1853,-0.1859,-0.1804,-0.1804,-0.1804,0,0,-0.1538,-0.1555,-0.157,-0.1603,-0.1625,-0.1653,-0.1653,-0.169,-0.1719,-0.1713,-0.1767,-0.1778,-0.1783,-0.1819,-0.1838,-0.1823,-0.1865,-0.1865,-0.1869,-0.1865,-0.1857,-0.1862,-0.1867,-0.1806,-0.1805,-0.1805,0,0,-0.1556,-0.1582,-0.1604,-0.1629,-0.1666,-0.1681,-0.1698,-0.1733,-0.1758,-0.1803,-0.1806,-0.1834,-0.1867,-0.1873,-0.1878,-0.1928,-0.1899,-0.1939,-0.1968,-0.1962,-0.1966,-0.1969,-0.1943,-0.1944,-0.1941,-0.1942,-0.1942,0,-0.1567,-0.1593,-0.1616,-0.1644,-0.1669,-0.1697,-0.1728,-0.1757,-0.1803,-0.1822,-0.183,-0.1879,-0.1889,-0.1918,-0.1939,-0.1942,-0.1927,-0.1938,-0.1969,-0.1972,-0.1974,-0.1947,-0.1947,-0.1944,-0.1944,-0.1944,-0.1944,0,-0.159,-0.1625,-0.1643,-0.1685,-0.1716,-0.175,-0.1788,-0.1828,-0.1859,-0.188,-0.1929,-0.1943,-0.1966,-0.1979,-0.1977,-0.2005,-0.1985,-0.1977,-0.1946,-0.1983,-0.1952,-0.1951,-0.1948,-0.1947,-0.1947,-0.1946,0,0,-0.1576,-0.1645,-0.1654,-0.1681,-0.1741,-0.1765,-0.1823,-0.1869,-0.1901,-0.1948,-0.1981,-0.202,-0.2026,-0.2032,-0.2035,-0.2037,-0.2045,-0.2022,-0.202,-0.1989,-0.2019,-0.1892,-0.1879,-0.2045,-0.2045,-0.2045,-0.1988,0,-0.1587,-0.1639,-0.1675,-0.1733,-0.1762,-0.1812,-0.1857,-0.1906,-0.1947,-0.1988,-0.201,-0.2044,-0.2047,-0.2061,-0.2067,-0.2053,-0.2046,-0.206,-0.1994,-0.1991,-0.1869,-0.1874,-0.2046,-0.1987,-0.1987,-0.1987,-0.1987,0,-0.1587,-0.1624,-0.1681,-0.1751,-0.177,-0.1814,-0.1883,-0.1929,-0.199,-0.202,-0.2057,-0.2072,-0.2096,-0.2089,-0.2077,-0.2087,-0.2059,-0.2041,-0.2038,-0.1899,-0.1862,-0.1945,-0.1984,-0.1984,-0.1984,-0.1985,-0.1985,0,-0.1542,-0.1623,-0.1668,-0.1695,-0.1781,-0.1821,-0.1871,-0.194,-0.1975,-0.2041,-0.2063,-0.2094,-0.2105,-0.2092,-0.2065,-0.2074,-0.203,-0.2032,-0.1886,-0.1877,-0.1986,-0.1983,-0.201,-0.201,-0.201,-0.201,-0.2011,0,-0.1517,-0.1556,-0.1657,-0.1679,-0.1733,-0.1807,-0.1864,-0.1917,-0.1986,-0.2008,-0.2075,-0.2078,-0.2109,-0.209,-0.2064,-0.196,-0.2025,-0.188,-0.1851,-0.2009,-0.2009,-0.1984,-0.1982,-0.2008,-0.2009,-0.2009,-0.201,0,-0.1448,-0.1519,-0.1574,-0.1677,-0.1712,-0.1751,-0.1852,-0.1879,-0.1964,-0.1993,-0.2013,-0.2066,-0.2035,-0.2036,-0.1999,-0.1933,-0.1865,-0.1811,-0.1967,-0.1949,-0.1716,-0.1717,-0.1636,-0.1631,-0.1627,-0.1623,-0.162,0,-0.1412,-0.1436,-0.1553,-0.1582,-0.1633,-0.1707,-0.1744,-0.185,-0.1872,-0.1958,-0.1947,-0.1964,-0.1975,-0.1809,-0.1842,-0.1763,-0.1745,-0.1697,-0.1718,-0.1696,-0.1677,-0.1685,-0.1692,-0.1614,-0.1613,-0.1612,-0.161,0,-0.1333,-0.139,-0.1433,-0.1495,-0.1548,-0.1594,-0.1659,-0.1662,-0.1761,-0.1863,-0.1812,-0.1784,-0.1742,-0.1705,-0.1652,-0.1605,-0.1725,-0.1653,-0.1662,-0.1681,-0.1668,-0.1655,-0.1667,-0.1596,-0.1598,-0.1599,-0.16,0,-0.127,-0.1279,-0.1341,-0.1377,-0.1442,-0.1444,-0.1502,-0.1514,-0.155,-0.1653,-0.163,-0.1653,-0.1713,-0.1621,-0.1577,-0.1516,-0.1495,-0.1445,-0.1465,-0.1481,-0.1458,-0.1421,-0.1234,0,0,0,0,0,-0.1193,-0.1184,-0.1213,-0.1243,-0.1301,-0.1331,-0.1419,-0.1479,-0.1582,-0.1496,-0.1557,-0.151,-0.1446,-0.1469,-0.1368,-0.151,-0.1505,-0.1389,-0.1459,-0.1514,-0.1531,-0.152,0,0,0,0,0,0,-0.1141,-0.1163,-0.1166,-0.1115,-0.1107,-0.1148,-0.1195,-0.1272,-0.1236,-0.1349,-0.1317,-0.1408,-0.1365,-0.1463,-0.133,-0.1336,-0.1346,-0.142,-0.1416,-0.1505,-0.152,-0.1534,-0.1528,0,0,0,0,0]},{"header":{"parameterUnit":"m.s-1","parameterCategory":2,"la1":30.2991,"la2":30.254,"lo1":-89.0895,"lo2":-89.0444,"dy":0.0017,"dx":0.0017,"nx":28,"ny":28,"refTime":"2024-12-03T09:00:00:Z","depth":"4","parameterNumber":3,"parameterNumberName":"V-component_of_CURRENTS"},"data":[0,0,0,0,0,0,0,0,0,0,0,0,0,0,0,0,0,0,0,0,0,0,0,0,0,0,0,0,0,0,0,0,0,0,0,0,0,0,0,0,0,0,0,0,0,0,0,0,0,0,0,0,0,0,0,0,0,0,-0.0234,-0.0234,0,-0.0197,-0.0197,-0.0196,-0.0171,-0.0171,-0.0171,-0.0171,-0.0108,-0.0106,-0.0105,0,0,0,0,0,0,0,0,0,0,0,0,0,-0.0251,-0.0251,-0.0234,-0.0234,-0.0234,-0.0197,-0.0197,-0.0196,-0.0171,-0.0171,-0.0171,-0.0171,-0.0108,-0.0106,-0.0105,0,0,0,0,0,0,0,0,0,0,0,0,0,-0.0232,-0.0251,-0.0235,-0.0217,-0.0215,-0.0197,-0.0197,-0.0196,-0.0171,-0.0171,-0.0171,-0.0171,-0.0109,-0.0107,-0.0104,-0.0093,0,0,-0.0097,-0.0096,0,0,0,0,0,0,0,0,-0.0233,-0.0231,-0.022,-0.0219,-0.0216,-0.0189,-0.0179,-0.016,-0.0171,-0.0188,-0.0171,-0.0171,-0.0133,-0.0129,-0.0122,-0.009,-0.0087,-0.0097,-0.0095,-0.0094,-0.0094,0,0,0,0,0,0,0,-0.0234,-0.0232,-0.0219,-0.022,-0.0217,-0.02,-0.0197,-0.0176,-0.0161,-0.0186,-0.0184,-0.0181,-0.0132,-0.0124,-0.012,-0.0087,-0.0097,-0.0095,-0.0093,-0.0092,-0.0041,-0.0041,0,0,0,0,0,0,-0.0242,-0.0234,-0.022,-0.0218,-0.0225,-0.02,-0.0197,-0.0198,-0.0162,-0.0156,-0.0181,-0.018,-0.0128,-0.0123,-0.0118,-0.0105,-0.0094,-0.0092,-0.0091,-0.0041,-0.0041,-0.0041,0,0,0,0,0,0,-0.0243,-0.0241,-0.0222,-0.0225,-0.0222,-0.0201,-0.0201,-0.0197,-0.0193,-0.0158,-0.0152,-0.0182,-0.0128,-0.0121,-0.0102,-0.0103,-0.0091,-0.0089,-0.0041,-0.0041,-0.0041,-0.0079,0,0,0,0,0,0,-0.0243,-0.0242,-0.0248,-0.0226,-0.0222,-0.0217,-0.0201,-0.0196,-0.0192,-0.019,-0.0157,-0.0151,-0.0127,-0.0106,-0.01,-0.0099,-0.0087,-0.0041,-0.0041,-0.0041,-0.0078,-0.008,-0.0083,0,0,0,0,0,-0.0244,-0.0253,-0.0249,-0.0247,-0.023,-0.0218,-0.0214,-0.0197,-0.0192,-0.0193,-0.017,-0.0152,-0.0102,-0.0104,-0.0097,-0.0096,-0.0041,-0.0041,-0.0041,-0.0076,-0.008,-0.0083,0,0,0,0,0,0,-0.0263,-0.0251,-0.0246,-0.0251,-0.0238,-0.0214,-0.0215,-0.0203,-0.0187,-0.0187,-0.0153,-0.0145,-0.0129,-0.0108,-0.0111,-0.0081,-0.0068,-0.0067,-0.0098,-0.01,-0.0103,-0.011,-0.0085,0,0,0,0,0,-0.0271,-0.0276,-0.0258,-0.0263,-0.0259,-0.0239,-0.0233,-0.0223,-0.0204,-0.0197,-0.0173,-0.0147,-0.0124,-0.011,-0.0088,-0.0071,-0.0043,-0.0065,-0.0068,-0.007,-0.0071,-0.0028,-0.0027,-0.0042,-0.0042,-0.0042,0,0,-0.0279,-0.0274,-0.0277,-0.0268,-0.0258,-0.0257,-0.0235,-0.0232,-0.0229,-0.0192,-0.0182,-0.0157,-0.0122,-0.0104,-0.0095,-0.0086,-0.0052,-0.007,-0.0072,-0.0072,-0.0028,-0.0027,-0.0025,-0.0042,-0.0042,-0.0042,0,0,-0.03,-0.0295,-0.0307,-0.03,-0.029,-0.0276,-0.0278,-0.0258,-0.0247,-0.0234,-0.0206,-0.0181,-0.015,-0.012,-0.0101,-0.0104,-0.0069,-0.0099,-0.0113,-0.0072,-0.007,-0.0069,-0.0034,-0.0029,-0.0097,-0.0097,-0.0097,0,-0.0312,-0.0324,-0.0307,-0.0315,-0.0314,-0.0288,-0.0297,-0.0281,-0.0256,-0.0245,-0.0238,-0.0182,-0.0155,-0.0121,-0.0123,-0.0109,-0.0083,-0.0106,-0.0075,-0.0073,-0.007,-0.0035,-0.0029,-0.0099,-0.0099,-0.0098,-0.0098,0,-0.0338,-0.0349,-0.0355,-0.0357,-0.0351,-0.0356,-0.0332,-0.0323,-0.0307,-0.0285,-0.0255,-0.0213,-0.0178,-0.0164,-0.0145,-0.0113,-0.01,-0.0086,-0.0069,-0.0071,-0.0034,-0.0027,-0.0101,-0.0101,-0.01,-0.01,0,0,-0.0362,-0.0373,-0.0377,-0.0388,-0.0376,-0.0376,-0.0367,-0.0349,-0.0343,-0.0309,-0.0291,-0.0245,-0.0218,-0.0195,-0.016,-0.0123,-0.0085,-0.0102,-0.0099,-0.0071,0.0003,-0.0002,0.0005,-0.0066,-0.0065,-0.0064,0.002,0,-0.039,-0.0423,-0.0414,-0.0438,-0.0451,-0.0425,-0.042,-0.0398,-0.037,-0.0344,-0.0288,-0.0261,-0.023,-0.0215,-0.0171,-0.0108,-0.0067,-0.0109,0.0003,0.0006,0.0,0.0013,-0.0061,0.0026,0.0027,0.0029,0.003,0,-0.0418,-0.0438,-0.0474,-0.0486,-0.0488,-0.0496,-0.0483,-0.0473,-0.0423,-0.0399,-0.0351,-0.0306,-0.0244,-0.0221,-0.0106,-0.0135,-0.0072,-0.0021,-0.0016,-0.0002,0.0015,0.0031,0.0043,0.0042,0.0041,0.004,0.0039,0,-0.0451,-0.0477,-0.0511,-0.0517,-0.0523,-0.0532,-0.053,-0.0495,-0.0487,-0.0433,-0.0416,-0.0332,-0.0292,-0.0201,-0.0093,-0.0099,0.0034,0.0042,0.01,0.0101,0.0096,0.0094,0.0124,0.0124,0.0124,0.0123,0.0123,0,-0.0482,-0.0509,-0.0535,-0.0555,-0.0593,-0.0577,-0.0597,-0.0576,-0.0543,-0.0529,-0.0451,-0.0414,-0.0285,-0.0191,-0.0097,0.0025,0.0036,0.0101,0.0124,0.0078,0.0072,0.0101,0.0098,0.0126,0.0126,0.0125,0.0125,0,-0.051,-0.0527,-0.0572,-0.06,-0.0613,-0.0641,-0.0655,-0.066,-0.0621,-0.0598,-0.0583,-0.0471,-0.0346,-0.0211,-0.0054,0.0015,0.0133,0.0174,0.0113,0.0131,0.0171,0.0164,0.0243,0.0243,0.0244,0.0244,0.0244,0,-0.0526,-0.0555,-0.0615,-0.0651,-0.067,-0.0707,-0.0729,-0.0707,-0.0701,-0.0628,-0.0613,-0.0491,-0.0404,-0.0177,-0.0045,0.0141,0.0164,0.0217,0.0194,0.017,0.0185,0.0177,0.017,0.0245,0.0245,0.0245,0.0246,0,-0.0556,-0.0584,-0.0622,-0.07,-0.0744,-0.0783,-0.0805,-0.0806,-0.0763,-0.0732,-0.0622,-0.0494,-0.0347,-0.0174,-0.0025,0.0104,0.0176,0.0223,0.0222,0.0201,0.0174,0.0186,0.0179,0.0247,0.0247,0.0247,0.0247,0,-0.0576,-0.0615,-0.0673,-0.0735,-0.0798,-0.0834,-0.0844,-0.0818,-0.0799,-0.0704,-0.0669,-0.0498,-0.0394,-0.0192,-0.0058,0.0072,0.0098,0.0125,0.013,0.0129,0.0068,0.0014,0.0063,0,0,0,0,0,-0.0589,-0.0635,-0.0702,-0.0768,-0.083,-0.0858,-0.088,-0.0873,-0.0832,-0.0758,-0.0706,-0.0561,-0.0336,-0.0235,-0.0104,-0.0069,0.0101,0.0084,0.0129,0.0257,0.0255,0.0201,0,0,0,0,0,0,-0.0599,-0.0666,-0.0701,-0.0778,-0.0825,-0.088,-0.0893,-0.0868,-0.0812,-0.0752,-0.0626,-0.0543,-0.0323,-0.0405,-0.0104,-0.0064,-0.0023,0.0196,0.0199,0.0258,0.0256,0.0254,0.0198,0,0,0,0,0]}]]